| time (UTC) | temp F | wind direction | speed MPH | gust MPH | rain 1hr in | rain 24hr in | rain mn in | humidity % | barometer mb |
| 20260905194018 | 58 | 360 | 2.0 | 9.0 | 0.00 | 0.13 | 0.09 | 64 | 930.9 |
| 20260905193517 | 58 | 360 | 6.0 | 9.0 | 0.00 | 0.13 | 0.09 | 64 | 930.7 |
| 20260905193058 | 58 | 360 | 4.0 | 9.0 | 0.00 | 0.13 | 0.09 | 64 | 930.6 |
| 20260905192516 | 58 | 360 | 4.0 | 8.0 | 0.00 | 0.13 | 0.09 | 64 | 930.7 |
| 20260905192018 | 58 | 360 | 3.0 | 6.0 | 0.00 | 0.13 | 0.09 | 64 | 930.8 |
| 20260905191605 | 58 | 360 | 3.0 | 6.0 | 0.00 | 0.13 | 0.09 | 66 | 930.4 |
| 20260905191020 | 58 | 360 | 2.0 | 6.0 | 0.00 | 0.13 | 0.09 | 68 | 930.7 |
| 20260905190518 | 57 | 360 | 3.0 | 5.0 | 0.00 | 0.13 | 0.09 | 67 | 930.7 |
| 20260905185517 | 57 | 360 | 0.0 | 1.0 | 0.00 | 0.13 | 0.09 | 71 | 930.9 |
| 20260905185017 | 56 | 360 | 0.0 | 5.0 | 0.00 | 0.13 | 0.09 | 70 | 930.9 |
| 20260905184603 | 56 | 360 | 0.0 | 5.0 | 0.00 | 0.13 | 0.09 | 70 | 930.8 |
| 20260905184019 | 55 | 360 | 1.0 | 3.0 | 0.00 | 0.13 | 0.09 | 71 | 930.7 |
| 20260905183516 | 55 | 360 | 1.0 | 3.0 | 0.00 | 0.13 | 0.09 | 70 | 930.7 |
| 20260905183103 | 55 | 360 | 0.0 | 3.0 | 0.00 | 0.13 | 0.09 | 71 | 930.8 |
| 20260905182519 | 55 | 360 | 0.0 | 3.0 | 0.00 | 0.13 | 0.09 | 71 | 930.9 |
| 20260905182019 | 54 | 360 | 0.0 | 2.0 | 0.00 | 0.13 | 0.09 | 71 | 931.0 |
| 20260905181604 | 54 | 360 | 0.0 | 0.0 | 0.00 | 0.13 | 0.09 | 71 | 931.0 |
| 20260905181018 | 54 | 360 | 0.0 | 3.0 | 0.00 | 0.13 | 0.09 | 71 | 931.0 |
| 20260905180521 | 54 | 360 | 0.0 | 5.0 | 0.00 | 0.13 | 0.09 | 71 | 931.1 |
| 20260905180107 | 54 | 360 | 1.0 | 5.0 | 0.00 | 0.13 | 0.09 | 71 | 930.9 |
| 20260905175527 | 54 | 360 | 4.0 | 6.0 | 0.00 | 0.13 | 0.09 | 71 | 930.9 |
| 20260905175019 | 54 | 360 | 4.0 | 6.0 | 0.00 | 0.13 | 0.09 | 71 | 930.9 |
| 20260905174603 | 53 | 360 | 3.0 | 8.0 | 0.00 | 0.13 | 0.09 | 71 | 930.9 |
| 20260905174016 | 53 | 360 | 4.0 | 8.0 | 0.00 | 0.13 | 0.09 | 71 | 930.8 |
| 20260905173524 | 53 | 360 | 4.0 | 6.0 | 0.00 | 0.13 | 0.09 | 71 | 931.1 |
| 20260905173106 | 53 | 360 | 4.0 | 5.0 | 0.00 | 0.13 | 0.09 | 71 | 931.2 |
| 20260905172520 | 53 | 360 | 3.0 | 5.0 | 0.00 | 0.13 | 0.09 | 71 | 931.0 |
| 20260905172020 | 53 | 360 | 1.0 | 6.0 | 0.00 | 0.13 | 0.09 | 71 | 931.3 |
| 20260905171549 | 53 | 360 | 4.0 | 6.0 | 0.00 | 0.13 | 0.09 | 71 | 931.0 |
| 20260905171019 | 53 | 360 | 4.0 | 8.0 | 0.00 | 0.13 | 0.09 | 70 | 931.2 |
| 20260905170517 | 54 | 360 | 4.0 | 8.0 | 0.00 | 0.13 | 0.09 | 70 | 931.3 |
| 20260905170110 | 54 | 360 | 4.0 | 8.0 | 0.00 | 0.13 | 0.09 | 70 | 931.1 |
| 20260905165519 | 54 | 360 | 4.0 | 6.0 | 0.00 | 0.13 | 0.09 | 71 | 931.0 |
| 20260905165019 | 54 | 360 | 2.0 | 4.0 | 0.00 | 0.13 | 0.09 | 71 | 931.2 |
| 20260905164603 | 54 | 360 | 2.0 | 6.0 | 0.01 | 0.13 | 0.09 | 71 | 931.2 |
| 20260905164019 | 54 | 360 | 4.0 | 6.0 | 0.01 | 0.13 | 0.09 | 70 | 931.0 |
| 20260905163523 | 54 | 360 | 3.0 | 4.0 | 0.01 | 0.13 | 0.09 | 70 | 931.0 |
| 20260905163112 | 54 | 360 | 1.0 | 3.0 | 0.01 | 0.13 | 0.09 | 70 | 931.0 |
| 20260905162517 | 54 | 360 | 1.0 | 4.0 | 0.01 | 0.13 | 0.09 | 71 | 930.8 |
| 20260905162019 | 54 | 360 | 2.0 | 4.0 | 0.02 | 0.13 | 0.09 | 71 | 930.6 |
| 20260905161609 | 53 | 360 | 2.0 | 4.0 | 0.02 | 0.13 | 0.09 | 71 | 930.5 |
| 20260905161022 | 53 | 360 | 2.0 | 4.0 | 0.02 | 0.13 | 0.09 | 71 | 930.5 |
| 20260905160524 | 53 | 360 | 2.0 | 5.0 | 0.02 | 0.13 | 0.09 | 70 | 930.3 |
| 20260905160104 | 53 | 360 | 3.0 | 5.0 | 0.03 | 0.13 | 0.09 | 71 | 930.1 |
| 20260905155519 | 53 | 360 | 0.0 | 2.0 | 0.03 | 0.13 | 0.09 | 70 | 930.6 |
| 20260905155021 | 53 | 360 | 1.0 | 2.0 | 0.02 | 0.12 | 0.08 | 70 | 930.5 |
| 20260905154547 | 52 | 360 | 0.0 | 4.0 | 0.02 | 0.12 | 0.08 | 70 | 930.8 |
| 20260905154022 | 52 | 360 | 1.0 | 5.0 | 0.02 | 0.12 | 0.08 | 70 | 930.9 |
| 20260905153520 | 52 | 360 | 3.0 | 6.0 | 0.02 | 0.12 | 0.08 | 70 | 930.9 |
| 20260905153057 | 52 | 360 | 3.0 | 9.0 | 0.02 | 0.12 | 0.08 | 70 | 930.7 |
| 20260905152525 | 52 | 360 | 6.0 | 9.0 | 0.01 | 0.11 | 0.07 | 70 | 930.9 |
| 20260905152021 | 52 | 360 | 5.0 | 8.0 | 0.01 | 0.11 | 0.07 | 70 | 930.7 |
| 20260905151558 | 52 | 360 | 5.0 | 8.0 | 0.02 | 0.11 | 0.07 | 70 | 930.6 |
| 20260905151020 | 52 | 360 | 5.0 | 8.0 | 0.02 | 0.11 | 0.07 | 70 | 930.6 |
| 20260905150523 | 52 | 360 | 4.0 | 5.0 | 0.02 | 0.11 | 0.07 | 70 | 930.5 |
| 20260905150109 | 52 | 360 | 3.0 | 4.0 | 0.01 | 0.09 | 0.06 | 70 | 930.5 |
| 20260905145519 | 52 | 360 | 1.0 | 3.0 | 0.01 | 0.09 | 0.06 | 70 | 930.7 |
| 20260905145019 | 52 | 360 | 1.0 | 3.0 | 0.01 | 0.09 | 0.06 | 70 | 930.6 |
| 20260905144550 | 52 | 360 | 0.0 | 2.0 | 0.01 | 0.09 | 0.06 | 70 | 930.7 |
| 20260905144020 | 52 | 360 | 0.0 | 3.0 | 0.01 | 0.09 | 0.06 | 70 | 930.6 |
| 20260905143520 | 52 | 360 | 1.0 | 4.0 | 0.01 | 0.09 | 0.06 | 71 | 930.5 |
| 20260905143104 | 52 | 360 | 2.0 | 4.0 | 0.01 | 0.09 | 0.06 | 71 | 930.3 |
| 20260905142519 | 52 | 360 | 2.0 | 3.0 | 0.01 | 0.09 | 0.06 | 71 | 930.3 |
| 20260905142019 | 52 | 360 | 0.0 | 2.0 | 0.00 | 0.09 | 0.04 | 71 | 930.3 |
| 20260905141604 | 52 | 360 | 1.0 | 2.0 | 0.00 | 0.09 | 0.04 | 71 | 930.2 |
| 20260905141022 | 52 | 360 | 1.0 | 2.0 | 0.00 | 0.09 | 0.04 | 71 | 930.4 |
| 20260905140520 | 52 | 360 | 0.0 | 0.0 | 0.01 | 0.09 | 0.04 | 71 | 930.4 |
| 20260905140105 | 52 | 360 | 0.0 | 0.0 | 0.01 | 0.09 | 0.04 | 71 | 930.3 |
| 20260905135521 | 52 | 360 | 0.0 | 2.0 | 0.01 | 0.09 | 0.04 | 71 | 930.4 |
| 20260905135025 | 52 | 360 | 0.0 | 3.0 | 0.02 | 0.09 | 0.04 | 71 | 930.2 |
| 20260905134601 | 51 | 360 | 2.0 | 5.0 | 0.02 | 0.09 | 0.04 | 71 | 930.1 |
| 20260905134023 | 52 | 360 | 2.0 | 5.0 | 0.02 | 0.09 | 0.04 | 71 | 930.2 |
| 20260905133522 | 51 | 360 | 4.0 | 6.0 | 0.03 | 0.09 | 0.04 | 71 | 929.8 |
| 20260905133104 | 51 | 360 | 3.0 | 8.0 | 0.03 | 0.09 | 0.04 | 71 | 929.8 |
| 20260905132523 | 51 | 360 | 5.0 | 8.0 | 0.03 | 0.09 | 0.04 | 70 | 929.8 |
| 20260905132024 | 52 | 360 | 6.0 | 8.0 | 0.03 | 0.09 | 0.04 | 70 | 929.6 |
| 20260905131556 | 52 | 360 | 2.0 | 4.0 | 0.03 | 0.09 | 0.04 | 70 | 929.8 |
| 20260905131018 | 52 | 360 | 1.0 | 3.0 | 0.03 | 0.09 | 0.04 | 70 | 930.0 |
| 20260905130518 | 52 | 360 | 1.0 | 4.0 | 0.02 | 0.08 | 0.04 | 70 | 930.3 |
| 20260905130101 | 52 | 360 | 2.0 | 5.0 | 0.02 | 0.08 | 0.04 | 70 | 930.3 |
| 20260905125524 | 52 | 360 | 3.0 | 5.0 | 0.02 | 0.08 | 0.04 | 69 | 930.5 |
| 20260905125029 | 51 | 360 | 0.0 | 3.0 | 0.01 | 0.07 | 0.03 | 69 | 930.3 |
| 20260905124601 | 51 | 360 | 0.0 | 2.0 | 0.01 | 0.07 | 0.03 | 69 | 930.3 |
| 20260905124020 | 51 | 360 | 0.0 | 3.0 | 0.00 | 0.06 | 0.02 | 69 | 930.1 |
| 20260905123523 | 51 | 360 | 0.0 | 4.0 | 0.00 | 0.06 | 0.02 | 69 | 930.0 |
| 20260905123108 | 51 | 360 | 3.0 | 5.0 | 0.00 | 0.06 | 0.02 | 69 | 929.8 |
| 20260905122524 | 52 | 360 | 3.0 | 5.0 | 0.00 | 0.06 | 0.02 | 69 | 929.8 |
| 20260905122021 | 52 | 360 | 3.0 | 5.0 | 0.00 | 0.06 | 0.02 | 69 | 929.6 |
| 20260905121601 | 52 | 360 | 3.0 | 5.0 | 0.00 | 0.06 | 0.02 | 69 | 929.5 |
| 20260905121021 | 52 | 360 | 1.0 | 3.0 | 0.00 | 0.06 | 0.02 | 69 | 929.5 |
| 20260905120524 | 52 | 360 | 0.0 | 2.0 | 0.00 | 0.06 | 0.02 | 69 | 929.5 |
| 20260905115522 | 52 | 360 | 0.0 | 0.0 | 0.01 | 0.06 | 0.02 | 69 | 929.5 |
| 20260905115023 | 52 | 360 | 0.0 | 2.0 | 0.01 | 0.06 | 0.02 | 69 | 929.9 |
| 20260905114600 | 52 | 360 | 0.0 | 3.0 | 0.01 | 0.06 | 0.02 | 69 | 929.8 |
| 20260905114021 | 52 | 360 | 2.0 | 5.0 | 0.01 | 0.06 | 0.02 | 69 | 929.6 |
| 20260905113524 | 52 | 360 | 2.0 | 5.0 | 0.02 | 0.06 | 0.02 | 69 | 929.8 |
| 20260905113100 | 52 | 360 | 3.0 | 8.0 | 0.02 | 0.06 | 0.02 | 69 | 929.6 |
| 20260905112521 | 52 | 360 | 4.0 | 9.0 | 0.02 | 0.06 | 0.02 | 68 | 929.9 |
| 20260905112024 | 52 | 360 | 4.0 | 11.0 | 0.02 | 0.06 | 0.02 | 68 | 929.8 |
| 20260905111558 | 52 | 360 | 7.0 | 11.0 | 0.02 | 0.06 | 0.02 | 68 | 929.6 |
| 20260905111024 | 52 | 360 | 8.0 | 11.0 | 0.02 | 0.06 | 0.02 | 68 | 929.6 |
| 20260905110523 | 52 | 360 | 4.0 | 6.0 | 0.02 | 0.06 | 0.02 | 69 | 929.5 |
| 20260905110059 | 51 | 360 | 2.0 | 6.0 | 0.01 | 0.04 | 0.01 | 69 | 929.4 |
| 20260905105523 | 51 | 360 | 4.0 | 6.0 | 0.01 | 0.04 | 0.01 | 69 | 929.2 |
| 20260905105019 | 51 | 360 | 3.0 | 5.0 | 0.01 | 0.04 | 0.01 | 69 | 929.2 |
| 20260905104553 | 52 | 360 | 2.0 | 4.0 | 0.01 | 0.04 | 0.01 | 69 | 929.2 |
| 20260905104022 | 52 | 360 | 2.0 | 4.0 | 0.00 | 0.04 | 0.00 | 69 | 929.4 |
| 20260905103528 | 52 | 360 | 2.0 | 4.0 | 0.00 | 0.04 | 0.00 | 69 | 929.4 |
| 20260905103052 | 52 | 360 | 2.0 | 5.0 | 0.00 | 0.04 | 0.00 | 69 | 929.4 |
| 20260905102524 | 52 | 360 | 2.0 | 5.0 | 0.00 | 0.04 | 0.00 | 69 | 929.3 |
| 20260905102017 | 52 | 360 | 3.0 | 5.0 | 0.00 | 0.04 | 0.00 | 68 | 929.4 |
| 20260905101605 | 52 | 360 | 3.0 | 5.0 | 0.00 | 0.04 | 0.00 | 68 | 929.2 |
| 20260905101023 | 52 | 360 | 3.0 | 9.0 | 0.00 | 0.04 | 0.00 | 68 | 929.3 |
| 20260905100524 | 52 | 360 | 4.0 | 9.0 | 0.00 | 0.04 | 0.00 | 68 | 929.1 |
| 20260905100125 | 52 | 360 | 5.0 | 9.0 | 0.00 | 0.04 | 0.00 | 68 | 929.3 |
| 20260905095526 | 52 | 360 | 4.0 | 10.0 | 0.00 | 0.04 | 0.00 | 68 | 929.4 |
| 20260905095020 | 52 | 360 | 7.0 | 10.0 | 0.00 | 0.04 | 0.00 | 67 | 929.4 |
| 20260905094818 | 52 | 360 | 4.0 | 9.0 | 0.00 | 0.04 | 0.00 | 67 | 929.2 |
| 20260905094018 | 52 | 360 | 5.0 | 9.0 | 0.00 | 0.04 | 0.00 | 67 | 929.2 |
| 20260905093518 | 52 | 360 | 4.0 | 8.0 | 0.00 | 0.04 | 0.00 | 67 | 929.1 |
| 20260905093034 | 52 | 360 | 5.0 | 8.0 | 0.00 | 0.04 | 0.00 | 67 | 928.8 |
| 20260905092521 | 52 | 360 | 4.0 | 5.0 | 0.00 | 0.04 | 0.00 | 67 | 928.5 |
| 20260905092022 | 52 | 360 | 2.0 | 3.0 | 0.00 | 0.04 | 0.00 | 67 | 928.7 |
| 20260905091554 | 52 | 360 | 1.0 | 4.0 | 0.00 | 0.04 | 0.00 | 67 | 928.5 |
| 20260905091018 | 52 | 360 | 3.0 | 4.0 | 0.00 | 0.04 | 0.00 | 67 | 928.8 |
| 20260905090519 | 52 | 360 | 2.0 | 4.0 | 0.00 | 0.04 | 0.00 | 67 | 928.4 |
| 20260905090036 | 52 | 360 | 3.0 | 5.0 | 0.00 | 0.04 | 0.00 | 67 | 928.6 |
| 20260905085522 | 51 | 360 | 3.0 | 5.0 | 0.00 | 0.04 | 0.00 | 67 | 928.3 |
| 20260905085018 | 52 | 360 | 3.0 | 4.0 | 0.00 | 0.04 | 0.00 | 67 | 928.3 |
| 20260905084548 | 52 | 360 | 2.0 | 6.0 | 0.00 | 0.04 | 0.00 | 67 | 928.1 |
| 20260905084016 | 52 | 360 | 4.0 | 6.0 | 0.00 | 0.04 | 0.00 | 67 | 928.3 |
| 20260905083519 | 52 | 360 | 4.0 | 6.0 | 0.00 | 0.04 | 0.00 | 67 | 928.3 |
| 20260905083047 | 52 | 360 | 3.0 | 8.0 | 0.00 | 0.04 | 0.00 | 67 | 928.2 |
| 20260905082516 | 52 | 360 | 5.0 | 8.0 | 0.00 | 0.04 | 0.00 | 67 | 928.5 |
| 20260905082017 | 52 | 360 | 4.0 | 9.0 | 0.00 | 0.04 | 0.00 | 66 | 928.3 |
| 20260905081541 | 52 | 360 | 6.0 | 11.0 | 0.00 | 0.04 | 0.00 | 66 | 928.2 |
| 20260905081019 | 52 | 360 | 8.0 | 11.0 | 0.00 | 0.04 | 0.00 | 66 | 928.3 |
| 20260905080520 | 52 | 360 | 6.0 | 10.0 | 0.00 | 0.04 | 0.00 | 65 | 928.7 |
| 20260905080033 | 52 | 360 | 5.0 | 8.0 | 0.00 | 0.04 | 0.00 | 63 | 928.4 |
| 20260905075518 | 52 | 360 | 5.0 | 8.0 | 0.00 | 0.04 | 0.00 | 63 | 928.2 |
| 20260905075017 | 52 | 360 | 3.0 | 5.0 | 0.00 | 0.04 | 0.00 | 63 | 928.3 |
| 20260905074534 | 52 | 360 | 3.0 | 5.0 | 0.00 | 0.04 | 0.00 | 63 | 928.4 |
| 20260905074021 | 52 | 360 | 3.0 | 4.0 | 0.00 | 0.04 | 0.00 | 64 | 928.3 |
| 20260905073517 | 52 | 360 | 3.0 | 4.0 | 0.00 | 0.04 | 0.00 | 64 | 928.3 |
| 20260905073040 | 53 | 360 | 1.0 | 4.0 | 0.00 | 0.04 | 0.00 | 65 | 928.4 |
| 20260905072517 | 53 | 360 | 3.0 | 4.0 | 0.00 | 0.04 | 0.00 | 64 | 928.3 |
| 20260905072018 | 53 | 360 | 1.0 | 2.0 | 0.00 | 0.04 | 0.00 | 65 | 928.3 |
| 20260905071535 | 53 | 360 | 0.0 | 1.0 | 0.00 | 0.04 | 0.00 | 65 | 928.3 |
| 20260905071017 | 53 | 360 | 0.0 | 2.0 | 0.00 | 0.04 | 0.00 | 64 | 928.1 |
| 20260905070516 | 53 | 360 | 0.0 | 3.0 | 0.00 | 0.04 | 0.00 | 64 | 928.1 |
| 20260905070036 | 53 | 360 | 1.0 | 3.0 | 0.00 | 0.04 | 0.00 | 65 | 928.0 |
| 20260905065516 | 53 | 360 | 1.0 | 3.0 | 0.00 | 0.04 | 0.00 | 65 | 928.0 |
| 20260905065018 | 53 | 360 | 2.0 | 4.0 | 0.00 | 0.04 | 0.00 | 64 | 928.0 |
| 20260905064533 | 53 | 360 | 0.0 | 6.0 | 0.00 | 0.04 | 0.00 | 64 | 927.9 |
| 20260905064020 | 53 | 360 | 3.0 | 6.0 | 0.00 | 0.04 | 0.00 | 63 | 928.1 |
| 20260905063521 | 53 | 360 | 3.0 | 8.0 | 0.01 | 0.04 | 0.00 | 63 | 928.2 |
| 20260905063036 | 52 | 360 | 4.0 | 8.0 | 0.01 | 0.04 | 0.00 | 62 | 928.2 |
| 20260905062516 | 52 | 360 | 5.0 | 8.0 | 0.01 | 0.04 | 0.00 | 63 | 928.0 |
| 20260905062020 | 52 | 360 | 5.0 | 8.0 | 0.01 | 0.04 | 0.00 | 63 | 928.1 |
| 20260905061546 | 52 | 360 | 4.0 | 9.0 | 0.01 | 0.04 | 0.00 | 63 | 928.4 |
| 20260905061016 | 53 | 360 | 7.0 | 12.0 | 0.01 | 0.04 | 0.00 | 63 | 928.3 |
| 20260905060517 | 52 | 360 | 9.0 | 12.0 | 0.01 | 0.04 | 0.00 | 64 | 928.2 |
| 20260905060050 | 52 | 360 | 9.0 | 12.0 | 0.01 | 0.04 | 0.00 | 64 | 928.5 |
| 20260905055517 | 52 | 360 | 4.0 | 6.0 | 0.01 | 0.04 | 0.04 | 64 | 928.4 |
| 20260905055017 | 52 | 360 | 4.0 | 8.0 | 0.01 | 0.04 | 0.04 | 64 | 928.3 |
| 20260905054622 | 52 | 360 | 4.0 | 8.0 | 0.01 | 0.04 | 0.04 | 64 | 928.4 |
| 20260905054021 | 52 | 360 | 3.0 | 6.0 | 0.01 | 0.04 | 0.04 | 65 | 928.4 |
| 20260905053520 | 52 | 360 | 4.0 | 6.0 | 0.00 | 0.03 | 0.03 | 65 | 928.5 |
| 20260905053046 | 51 | 360 | 4.0 | 9.0 | 0.00 | 0.03 | 0.03 | 66 | 928.4 |
| 20260905052517 | 51 | 360 | 5.0 | 9.0 | 0.01 | 0.03 | 0.03 | 66 | 928.3 |
| 20260905052021 | 51 | 360 | 5.0 | 9.0 | 0.01 | 0.03 | 0.03 | 66 | 928.2 |
| 20260905051553 | 51 | 360 | 6.0 | 9.0 | 0.02 | 0.03 | 0.03 | 66 | 928.1 |
| 20260905051018 | 51 | 360 | 6.0 | 12.0 | 0.03 | 0.03 | 0.03 | 66 | 927.8 |
| 20260905050519 | 51 | 360 | 8.0 | 12.0 | 0.03 | 0.03 | 0.03 | 66 | 928.0 |
| 20260905050049 | 52 | 360 | 8.0 | 12.0 | 0.03 | 0.03 | 0.03 | 65 | 928.2 |
| 20260905045521 | 52 | 360 | 9.0 | 12.0 | 0.03 | 0.03 | 0.03 | 65 | 928.4 |
| 20260905045015 | 52 | 360 | 9.0 | 11.0 | 0.03 | 0.03 | 0.03 | 64 | 928.5 |
| 20260905044553 | 52 | 360 | 7.0 | 11.0 | 0.03 | 0.03 | 0.03 | 65 | 928.5 |
| 20260905044017 | 53 | 360 | 9.0 | 11.0 | 0.03 | 0.03 | 0.03 | 65 | 928.9 |
| 20260905043520 | 53 | 360 | 7.0 | 10.0 | 0.03 | 0.03 | 0.03 | 63 | 928.9 |
| 20260905043102 | 54 | 360 | 8.0 | 10.0 | 0.03 | 0.03 | 0.03 | 63 | 928.8 |
| 20260905042519 | 54 | 360 | 6.0 | 10.0 | 0.02 | 0.02 | 0.02 | 62 | 928.7 |
| 20260905042016 | 55 | 360 | 6.0 | 10.0 | 0.02 | 0.02 | 0.02 | 59 | 929.1 |
| 20260905041552 | 55 | 360 | 8.0 | 10.0 | 0.01 | 0.01 | 0.01 | 57 | 929.0 |
| 20260905041015 | 56 | 360 | 6.0 | 10.0 | 0.00 | 0.00 | 0.00 | 54 | 928.5 |
| 20260905040521 | 58 | 360 | 7.0 | 9.0 | 0.00 | 0.00 | 0.00 | 49 | 928.5 |
| 20260905040057 | 58 | 360 | 4.0 | 6.0 | 0.00 | 0.00 | 0.00 | 45 | 928.1 |
| 20260905035519 | 59 | 360 | 3.0 | 5.0 | 0.00 | 0.00 | 0.00 | 43 | 927.8 |
| 20260905035021 | 59 | 360 | 3.0 | 9.0 | 0.00 | 0.00 | 0.00 | 40 | 927.7 |
| 20260905034602 | 59 | 360 | 5.0 | 10.0 | 0.00 | 0.00 | 0.00 | 41 | 927.7 |
| 20260905034017 | 59 | 360 | 6.0 | 10.0 | 0.00 | 0.00 | 0.00 | 42 | 927.6 |
| 20260905033517 | 59 | 360 | 5.0 | 12.0 | 0.00 | 0.00 | 0.00 | 42 | 927.7 |
| 20260905033110 | 59 | 360 | 7.0 | 12.0 | 0.00 | 0.00 | 0.00 | 40 | 927.7 |
| 20260905032521 | 59 | 360 | 6.0 | 11.0 | 0.00 | 0.00 | 0.00 | 40 | 927.7 |
| 20260905032020 | 60 | 360 | 9.0 | 14.0 | 0.00 | 0.00 | 0.00 | 39 | 927.8 |
| 20260905031600 | 60 | 360 | 10.0 | 16.0 | 0.00 | 0.00 | 0.00 | 39 | 927.8 |
| 20260905031017 | 60 | 360 | 12.0 | 18.0 | 0.00 | 0.00 | 0.00 | 38 | 927.6 |
| 20260905030517 | 60 | 360 | 13.0 | 18.0 | 0.00 | 0.00 | 0.00 | 37 | 926.9 |
| 20260905030055 | 60 | 360 | 10.0 | 17.0 | 0.00 | 0.00 | 0.00 | 38 | 927.1 |
| 20260905025517 | 60 | 360 | 11.0 | 19.0 | 0.00 | 0.00 | 0.00 | 37 | 927.0 |
| 20260905025018 | 61 | 360 | 14.0 | 19.0 | 0.00 | 0.00 | 0.00 | 36 | 926.6 |
| 20260905024558 | 62 | 360 | 10.0 | 17.0 | 0.00 | 0.00 | 0.00 | 34 | 926.7 |
| 20260905024015 | 63 | 360 | 12.0 | 15.0 | 0.00 | 0.00 | 0.00 | 32 | 926.7 |
| 20260905023518 | 63 | 360 | 11.0 | 13.0 | 0.00 | 0.00 | 0.00 | 30 | 927.1 |
| 20260905023051 | 63 | 360 | 9.0 | 13.0 | 0.00 | 0.00 | 0.00 | 30 | 927.1 |
| 20260905022518 | 63 | 360 | 9.0 | 14.0 | 0.00 | 0.00 | 0.00 | 29 | 926.9 |
| 20260905022017 | 63 | 360 | 11.0 | 14.0 | 0.00 | 0.00 | 0.00 | 29 | 926.7 |
| 20260905021549 | 63 | 360 | 11.0 | 16.0 | 0.00 | 0.00 | 0.00 | 29 | 926.4 |
| 20260905021017 | 64 | 360 | 12.0 | 17.0 | 0.00 | 0.00 | 0.00 | 28 | 926.2 |
| 20260905020523 | 64 | 360 | 13.0 | 17.0 | 0.00 | 0.00 | 0.00 | 28 | 926.0 |
| 20260905020056 | 64 | 360 | 11.0 | 17.0 | 0.00 | 0.00 | 0.00 | 27 | 926.1 |
| 20260905015520 | 65 | 360 | 12.0 | 17.0 | 0.00 | 0.00 | 0.00 | 27 | 926.1 |
| 20260905015018 | 65 | 360 | 11.0 | 19.0 | 0.00 | 0.00 | 0.00 | 27 | 925.9 |
| 20260905014552 | 65 | 360 | 14.0 | 19.0 | 0.00 | 0.00 | 0.00 | 26 | 926.0 |
| 20260905014018 | 65 | 360 | 14.0 | 20.0 | 0.00 | 0.00 | 0.00 | 27 | 925.9 |
| 20260905013517 | 65 | 360 | 14.0 | 20.0 | 0.00 | 0.00 | 0.00 | 27 | 925.8 |
| 20260905013102 | 66 | 360 | 14.0 | 20.0 | 0.00 | 0.00 | 0.00 | 27 | 925.3 |
| 20260905012517 | 66 | 360 | 15.0 | 20.0 | 0.00 | 0.00 | 0.00 | 26 | 925.1 |
| 20260905012016 | 66 | 360 | 12.0 | 16.0 | 0.00 | 0.00 | 0.00 | 25 | 925.2 |
| 20260905011553 | 66 | 360 | 12.0 | 18.0 | 0.00 | 0.00 | 0.00 | 25 | 925.0 |
| 20260905011022 | 66 | 360 | 14.0 | 19.0 | 0.00 | 0.00 | 0.00 | 25 | 925.0 |
| 20260905010518 | 66 | 360 | 15.0 | 21.0 | 0.00 | 0.00 | 0.00 | 25 | 925.1 |
| 20260905010100 | 66 | 360 | 14.0 | 21.0 | 0.00 | 0.00 | 0.00 | 25 | 925.0 |
| 20260905005518 | 67 | 360 | 16.0 | 20.0 | 0.00 | 0.00 | 0.00 | 25 | 924.8 |
| 20260905005021 | 67 | 360 | 15.0 | 18.0 | 0.00 | 0.00 | 0.00 | 25 | 925.0 |
| 20260905004550 | 67 | 360 | 12.0 | 16.0 | 0.00 | 0.00 | 0.00 | 26 | 925.1 |
| 20260905004017 | 67 | 360 | 10.0 | 18.0 | 0.00 | 0.00 | 0.00 | 26 | 925.4 |
| 20260905003519 | 67 | 360 | 11.0 | 19.0 | 0.00 | 0.00 | 0.00 | 26 | 925.3 |
| 20260905003058 | 67 | 360 | 13.0 | 23.0 | 0.00 | 0.00 | 0.00 | 25 | 925.5 |
| 20260905002516 | 68 | 360 | 18.0 | 23.0 | 0.00 | 0.00 | 0.00 | 25 | 924.8 |
| 20260905002017 | 68 | 360 | 17.0 | 21.0 | 0.00 | 0.00 | 0.00 | 25 | 925.0 |
| 20260905001554 | 68 | 360 | 17.0 | 22.0 | 0.00 | 0.00 | 0.00 | 25 | 925.0 |
| 20260905001020 | 68 | 360 | 17.0 | 22.0 | 0.00 | 0.00 | 0.00 | 25 | 925.1 |
| 20260905000521 | 68 | 360 | 16.0 | 25.0 | 0.00 | 0.00 | 0.00 | 26 | 925.1 |
| 20260905000100 | 69 | 360 | 17.0 | 23.0 | 0.00 | 0.00 | 0.00 | 26 | 925.0 |
| 20260904235518 | 69 | 360 | 19.0 | 24.0 | 0.00 | 0.00 | 0.00 | 26 | 924.9 |
| 20260904235020 | 69 | 360 | 19.0 | 28.0 | 0.00 | 0.00 | 0.00 | 26 | 924.7 |
| 20260904234550 | 69 | 360 | 18.0 | 24.0 | 0.00 | 0.00 | 0.00 | 27 | 924.6 |
| 20260904234019 | 69 | 360 | 17.0 | 25.0 | 0.00 | 0.00 | 0.00 | 27 | 924.9 |
| 20260904233519 | 70 | 360 | 18.0 | 26.0 | 0.00 | 0.00 | 0.00 | 26 | 924.9 |
| 20260904233047 | 70 | 360 | 19.0 | 26.0 | 0.00 | 0.00 | 0.00 | 26 | 924.7 |
| 20260904232518 | 70 | 360 | 17.0 | 26.0 | 0.00 | 0.00 | 0.00 | 27 | 924.7 |
| 20260904232018 | 70 | 360 | 19.0 | 24.0 | 0.00 | 0.00 | 0.00 | 26 | 924.6 |
| 20260904231606 | 70 | 360 | 16.0 | 23.0 | 0.00 | 0.00 | 0.00 | 26 | 924.7 |
| 20260904231018 | 71 | 360 | 17.0 | 26.0 | 0.00 | 0.00 | 0.00 | 26 | 924.8 |
| 20260904230518 | 71 | 360 | 20.0 | 26.0 | 0.00 | 0.00 | 0.00 | 26 | 924.5 |
| 20260904230104 | 71 | 360 | 17.0 | 26.0 | 0.00 | 0.00 | 0.00 | 26 | 924.8 |
| 20260904225516 | 71 | 360 | 19.0 | 26.0 | 0.00 | 0.00 | 0.00 | 25 | 924.7 |
| 20260904225021 | 72 | 360 | 16.0 | 23.0 | 0.00 | 0.00 | 0.00 | 25 | 924.6 |
| 20260904224549 | 71 | 360 | 16.0 | 23.0 | 0.00 | 0.00 | 0.00 | 25 | 924.7 |
| 20260904224019 | 72 | 360 | 17.0 | 23.0 | 0.00 | 0.00 | 0.00 | 25 | 924.6 |
| 20260904223519 | 71 | 360 | 15.0 | 23.0 | 0.00 | 0.00 | 0.00 | 25 | 924.7 |
| 20260904223057 | 72 | 360 | 18.0 | 25.0 | 0.00 | 0.00 | 0.00 | 25 | 924.4 |
| 20260904222521 | 71 | 360 | 18.0 | 25.0 | 0.00 | 0.00 | 0.00 | 26 | 924.3 |
| 20260904222016 | 71 | 360 | 13.0 | 23.0 | 0.00 | 0.00 | 0.00 | 27 | 924.5 |
| 20260904221555 | 71 | 360 | 16.0 | 25.0 | 0.00 | 0.00 | 0.00 | 28 | 924.5 |
| 20260904221018 | 71 | 360 | 17.0 | 25.0 | 0.00 | 0.00 | 0.00 | 28 | 924.4 |
| 20260904220521 | 71 | 360 | 13.0 | 22.0 | 0.00 | 0.00 | 0.00 | 27 | 924.4 |
| 20260904220104 | 71 | 360 | 17.0 | 31.0 | 0.00 | 0.00 | 0.00 | 28 | 924.4 |
| 20260904215520 | 71 | 360 | 20.0 | 31.0 | 0.00 | 0.00 | 0.00 | 28 | 924.1 |
| 20260904215024 | 70 | 360 | 11.0 | 23.0 | 0.00 | 0.00 | 0.00 | 29 | 924.0 |
| 20260904214600 | 71 | 360 | 17.0 | 21.0 | 0.00 | 0.00 | 0.00 | 29 | 924.0 |
| 20260904214017 | 71 | 360 | 17.0 | 24.0 | 0.00 | 0.00 | 0.00 | 29 | 924.1 |
| 20260904213518 | 71 | 360 | 17.0 | 24.0 | 0.00 | 0.00 | 0.00 | 29 | 923.9 |
| 20260904213051 | 71 | 360 | 15.0 | 26.0 | 0.00 | 0.00 | 0.00 | 29 | 924.0 |
| 20260904212516 | 71 | 360 | 18.0 | 26.0 | 0.00 | 0.00 | 0.00 | 28 | 923.9 |
| 20260904212020 | 71 | 360 | 10.0 | 20.0 | 0.00 | 0.00 | 0.00 | 28 | 923.9 |
| 20260904211603 | 71 | 360 | 16.0 | 26.0 | 0.00 | 0.00 | 0.00 | 29 | 923.8 |
| 20260904211019 | 71 | 360 | 21.0 | 26.0 | 0.00 | 0.00 | 0.00 | 28 | 923.8 |
| 20260904210520 | 70 | 360 | 16.0 | 25.0 | 0.00 | 0.00 | 0.00 | 29 | 923.9 |
| 20260904210100 | 70 | 360 | 15.0 | 25.0 | 0.00 | 0.00 | 0.00 | 28 | 923.6 |
| 20260904205519 | 70 | 360 | 18.0 | 26.0 | 0.00 | 0.00 | 0.00 | 29 | 923.8 |
| 20260904205018 | 70 | 360 | 17.0 | 26.0 | 0.00 | 0.00 | 0.00 | 28 | 923.7 |
| 20260904204552 | 71 | 360 | 15.0 | 26.0 | 0.00 | 0.00 | 0.00 | 28 | 923.8 |
| 20260904204018 | 70 | 360 | 16.0 | 25.0 | 0.00 | 0.00 | 0.00 | 28 | 923.7 |
| 20260904203521 | 70 | 360 | 17.0 | 25.0 | 0.00 | 0.00 | 0.00 | 27 | 923.6 |
| 20260904203057 | 70 | 360 | 18.0 | 26.0 | 0.00 | 0.00 | 0.00 | 27 | 923.5 |
| 20260904202519 | 70 | 360 | 17.0 | 26.0 | 0.00 | 0.00 | 0.00 | 28 | 923.4 |
| 20260904202022 | 70 | 360 | 17.0 | 28.0 | 0.00 | 0.00 | 0.00 | 27 | 923.3 |
| 20260904201550 | 70 | 360 | 17.0 | 28.0 | 0.00 | 0.00 | 0.00 | 29 | 923.4 |
| 20260904201019 | 70 | 360 | 18.0 | 28.0 | 0.00 | 0.00 | 0.00 | 28 | 923.0 |
| 20260904200517 | 70 | 360 | 16.0 | 28.0 | 0.00 | 0.00 | 0.00 | 29 | 923.3 |
| 20260904200112 | 70 | 360 | 15.0 | 27.0 | 0.00 | 0.00 | 0.00 | 29 | 923.1 |
| 20260904195518 | 70 | 360 | 20.0 | 27.0 | 0.00 | 0.00 | 0.00 | 30 | 923.1 |
| 20260904195016 | 70 | 360 | 19.0 | 28.0 | 0.00 | 0.00 | 0.00 | 29 | 923.0 |
| 20260904194551 | 69 | 360 | 24.0 | 30.0 | 0.00 | 0.00 | 0.00 | 30 | 922.8 |